Regional Weather Roundup
Issued by NWS

Home | Current Version | Previous Version | Text Only | Print | Product List | Glossary On
Versions: 1 2 3 4 5 6 7 8 9 10 11 12 13 14 15 16 17 18 19 20 21 22 23 24 25 26 27 28 29 30 31 32 33 34 35 36 37 38 39 40 41 42 43 44 45 46 47 48 49 50
229
ASUS43 KMPX 111901
RWRMN
WEATHER ROUNDUP FOR MINNESOTA
NATIONAL WEATHER SERVICE TWIN CITIES/CHANHASSEN MN
100 PM CST THU FEB 11 2016


NOTE: "FAIR" INDICATES FEW OR NO CLOUDS BELOW 12,000 FEET WITH NO
SIGNIFICANT WEATHER AND/OR OBSTRUCTIONS TO VISIBILITY. N/A MEANS
CURRENT SKY AND/OR WEATHER CONDITIONS ARE NOT AVAILABLE.

MNZ060>063-068>070-112000-
   Twin Cities Metro

CITY           SKY/WX    TMP DP  RH WIND       PRES   REMARKS
TWIN CITIES    CLOUDY    15  -4  42 SW8       30.28F WCI   4
ST PAUL        CLOUDY    15  -2  46 S6        30.30F WCI   6
CRYSTAL        CLOUDY    15  -3  44 W5        30.27F WCI   8
LAKEVILLE      CLOUDY    14   0  52 S6        30.27F WCI   5
EDEN PRAIRIE   CLOUDY    15  -2  46 S9        30.27F WCI   3
SOUTH ST PAUL  CLOUDY    16  -1  47 S5        30.28F WCI   9
LAKE ELMO      CLOUDY    18   1  49 S6        30.27F WCI   9
$$
MNZ001>005-007-008-013>017-022>024-027-028-112000-
   Northwest Minnesota

CITY           SKY/WX    TMP DP  RH WIND       PRES   REMARKS
BEMIDJI        CLOUDY    10  -5  51 W8        30.17F WCI  -2
HALLOCK        LGT SNOW  12   7  79 W6        30.23S WCI   3
ROSEAU         SUNNY      9   1  72 NW7       30.19F WCI  -3
WARROAD        SUNNY      9   0  66 SW9       30.18F WCI  -5
THIEF RVR FALL CLOUDY     9   1  72 SW7       30.21F WCI  -3
CROOKSTON      MOSUNNY   10   3  72 SW5       30.24F WCI   2
FOSSTON        CLOUDY    10   0  61 SW3       30.20F
DETROIT LAKES  CLOUDY    14   3  62 SW6       30.19F WCI   5
MOORHEAD       CLOUDY    12   1  62 S6        30.24F WCI   3
PARK RAPIDS    CLOUDY    10  -1  61 CALM      30.16F
MAHNOMEN       CLOUDY     9   2  73 SW3       30.20F
$$
MNZ006-009>011-018-025>026-112000-
   North Central Minnesota

CITY           SKY/WX    TMP DP  RH WIND       PRES   REMARKS
BAUDETTE       CLOUDY     9  -6  50 W6        30.16F WCI  -1
FLAG ISLAND    CLOUDY     3  -4  72 S7        30.16F WCI  -9
INTL FALLS     PTSUNNY   10  -6  48 W7        30.15F WCI  -1
WASKISH        CLOUDY     9  -2  61 SW9       30.18F WCI  -5
LONGVILLE      CLOUDY    10  -6  48 SW5       30.18F WCI   2
GRAND RAPIDS   CLOUDY     9  -6  52 SW6       30.18F WCI  -1
CRANE LAKE     CLOUDY     9  -6  52 W5        30.18F WCI   0
ORR            CLOUDY    10  -8  44 W6        30.12F WCI   1
COOK           PTSUNNY    9  -6  52 W6        30.15F WCI  -1
WALKER         CLOUDY    10  -4  51 W5        30.18F WCI   2
$$
MNZ012-019>021-037-112000-
   Northeast Minnesota

CITY           SKY/WX    TMP DP  RH WIND       PRES   REMARKS
DULUTH         MOSUNNY    9  -6  50 W10       30.16F WCI  -5
ELY            SUNNY      9  -6  52 W9        30.13F WCI  -5
HIBBING        CLOUDY     8  -8  48 VRB7      30.16F WCI  -3
EVELETH        MOSUNNY   10  -4  52 W7        30.16F WCI   0
DULUTH HARBOR  CLOUDY    10  -6  48 SW8       30.25F WCI  -1
TWO HARBORS    CLOUDY    16  -2  45 SW6       30.16F WCI   7
SILVER BAY     PTSUNNY   16  -6  38 S6        30.14F WCI   7
GRAND MARAIS     N/A     16  -1  47 W8        30.18F WCI   5
G MARAIS ARPRT CLOUDY     9  -6  52 W9        30.06F WCI  -5
$$
MNZ029>031-032-039>041-046>048-054>057-064-112000-
   West Central Minnesota

CITY           SKY/WX    TMP DP  RH WIND       PRES   REMARKS
FERGUS FALLS   CLOUDY    12   5  73 S6        30.25F WCI   3
WHEATON        CLOUDY    16   9  73 SE8       30.24F WCI   5
MORRIS         CLOUDY    12   7  79 S6        30.22F WCI   3
ALEXANDRIA     FLURRIES  13   4  67 SW10      30.20F WCI   0
ELBOW LAKE     CLOUDY    13   6  72 S8        30.21F HAZE    WCI   2
WADENA         CLOUDY    12   1  62 W8        30.18F WCI   1
GLENWOOD       FLURRIES  12   7  79 SW9       30.21F WCI   0
APPLETON       CLOUDY    14   5  67 S6        30.23F WCI   5
BENSON         FLURRIES  14   5  67 CALM      30.23F
ORTONVILLE     CLOUDY    12   7  79 SE7       30.21F WCI   2
MADISON        CLOUDY    16   7  67 SE6       30.23F WCI   7
WILLMAR        CLOUDY    16   7  67 SW3       30.24F
$$
MNZ033>034-036-042>043-049>051-058-059-112000-
   Central Minnesota

CITY           SKY/WX    TMP DP  RH WIND       PRES   REMARKS
ST CLOUD       CLOUDY    12  -1  56 S6        30.24F WCI   3
SAUK CENTRE    FLURRIES  14   5  69 SW8       30.21F WCI   2
PAYNESVILLE    CLOUDY    14   4  65 S5        30.23F WCI   6
AITKIN         CLOUDY    12  -9  37 SW8       30.19F WCI   1
PINE RIVER     CLOUDY    10   0  61 S3        30.22F
BRAINERD       CLOUDY    10  -2  58 SW5       30.21F WCI   2
STAPLES        CLOUDY    10   0  61 S5        30.20F WCI   2
LONG PRAIRIE   CLOUDY    12   3  67 S6        30.21F WCI   3
LITTLE FALLS   CLOUDY    12   0  57 CALM      30.23F
LITCHFIELD     CLOUDY    16   5  62 CALM      30.24F
BUFFALO        CLOUDY    14  -1  50 S5        30.27F WCI   6
MAPLE LAKE     CLOUDY    15   2  58 S5        30.26F WCI   7
$$
MNZ037-044-045-052-053-112000-
   East Central Minnesota

CITY           SKY/WX    TMP DP  RH WIND       PRES   REMARKS
PRINCETON      CLOUDY    16   0  48 SW6       30.25F WCI   7
MORA           CLOUDY    12  -4  48 SW7       30.26F WCI   2
CAMBRIDGE      CLOUDY    14   0  52 CALM      30.24F
RUSH CITY      CLOUDY    13  -4  46 CALM      30.26F
MOOSE LAKE     CLOUDY    14  -6  41 S5        30.19F WCI   6
HINCKLEY       CLOUDY    12  -2  52 S3        30.24F
CLOQUET        CLOUDY     9  -9  43 SW6       30.18F WCI  -1
MCGREGOR       CLOUDY    12  -4  48 W5        30.20F WCI   4
$$
MNZ071>073-080-081-089-090-097-098-112000-
   Southwest Minnesota

CITY           SKY/WX    TMP DP  RH WIND       PRES   REMARKS
MONTEVIDEO     CLOUDY    16   5  62 S7        30.25F WCI   6
GRANITE FALLS  CLOUDY    16  10  78 SE9       30.25F WCI   5
CANBY          CLOUDY    21  12  69 S7        30.21F WCI  12
MARSHALL       CLOUDY    17   7  64 SW12      30.21F WCI   4
REDWOOD FALLS  CLOUDY    14   3  61 S10       30.25F WCI   1
OLIVIA         CLOUDY    16   5  62 S9        30.24F WCI   4
PIPESTONE      LGT SNOW  16   7  67 S14       30.16F WCI   1
WINDOM         CLOUDY    16   3  57 S5        30.21F WCI   9
WORTHINGTON    CLOUDY    14   3  62 S13       30.20F WCI   0
JACKSON        CLOUDY    16   3  57 S9        30.22F WCI   4
TRACY          CLOUDY    17   8  69 S12       30.21F WCI   4
SLAYTON        CLOUDY    16  10  77 S12       30.18F WCI   2
$$
MNZ065>067-074>077-082>085-091>093-112000-
   South Central Minnesota

CITY           SKY/WX    TMP DP  RH WIND       PRES   REMARKS
MANKATO        CLOUDY    14   1  57 S8        30.27F WCI   3
NEW ULM        CLOUDY    12   1  62 S9        30.26F WCI   0
ST JAMES       CLOUDY    12   5  73 S14       30.27F WCI  -3
FAIRMONT       CLOUDY    12   1  62 S10       30.25F WCI  -1
GLENCOE        CLOUDY    16   5  62 S5        30.25F WCI   9
FARIBAULT      CLOUDY    14   1  57 SE5       30.27F WCI   6
OWATONNA       MOSUNNY   14   0  52 SW6       30.26F WCI   5
WASECA         SUNNY     14   3  62 S8        30.28F WCI   3
ALBERT LEA     SUNNY     14   0  52 S9        30.26F WCI   2
$$
MNZ078>079-086>088-094>096-112000-
   Southeast Minnesota

CITY           SKY/WX    TMP DP  RH WIND       PRES   REMARKS
ROCHESTER      MIX PCPN  11  -2  56 SW9       30.27F WCI  -2
RED WING       PTSUNNY   18  -6  35 W5        30.29F WCI  11
STANTON        CLOUDY    16   1  51 SW7       30.27F WCI   6
DODGE CENTER   MOSUNNY   14   0  52 SW9       30.25F WCI   2
WINONA         SUNNY     19   0  42 W3        30.32F
AUSTIN         SUNNY     10   1  67 S6        30.27F WCI   1
PRESTON        SUNNY     12  -4  48 NW3       30.28F
$$
ABBREVIATIONS USED IN REMARKS
   TC - TEMPERATURES IN CELSIUS
  WCI - WIND CHILL INDEX
   HX - HEAT INDEX
  VSB - VISIBILITY
$$




USA.gov is the U.S. government's official web portal to all federal, state and local government web resources and services.